Weather History for College Park, MD

Change the Weather History Date:

Friday, June 28, 2013

  Actual Average Record
Temperature  
Mean Temperature 80 °F -  
Max Temperature 89 °F 87 °F 99 °F (1959)
Min Temperature 70 °F 64 °F 51 °F (1950)
Cooling Degree Days 14    
Growing Degree Days 30 (Base 50)    
Moisture  
Dew Point 72 °F    
Average Humidity 87    
Maximum Humidity 100    
Minimum Humidity 56    
Precipitation  
Precipitation 0.00 in - - ()
Sea Level Pressure  
Sea Level Pressure 29.57 in    
Wind  
Wind Speed 2 mph (SSW)    
Max Wind Speed 9 mph    
Max Gust Speed 22 mph    
Visibility 8 miles    
Events      
Averages and records for this station are not official NWS values.
T = Trace of Precipitation, MM = Missing Value Source: NWS Daily Summary

Daily Weather History Graph

Daily Weather History Graph

Search for Another Location

Airport:

Trip Planner

Search our weather history database for the weather conditions in past years. The results will help you decide how hot, cold, wet, or windy it might be!

Date:

Astronomy

Jun. 28, 2013 Rise Set
Actual Time 5:44 AM EDT 8:37 PM EDT
Civil Twilight 5:12 AM EDT 9:09 PM EDT
Nautical Twilight 4:32 AM EDT 9:49 PM EDT
Astronomical Twilight 3:45 AM EDT 10:36 PM EDT
Moon No Moon Rise 11:46 AM EDT (6/28)
Length of Visible Light 15h 56m
Length of Day
14h 52m
Waning Gibbous, 66% of the Moon is Illuminated
Jun 28
Waning Gibbous
Jun 30
Last Quarter
Jul 8
New
Jul 15
First Quarter
Jul 22
Full

Hourly Weather History & Observations

Time (EDT) Temp. Heat Index Dew Point Humidity Pressure Visibility Wind Dir Wind Speed Gust Speed Precip Events Conditions
12:10 AM 73.6 °F - 73.6 °F 100% 29.63 in 2.5 mi Calm Calm - N/A   Clear
12:30 AM 73.6 °F - 73.6 °F 100% 29.63 in 5.0 mi Calm Calm - N/A   Mostly Cloudy
12:50 AM 74.5 °F - 74.5 °F 100% 29.62 in 7.0 mi Calm Calm - N/A   Overcast
1:10 AM 74.7 °F - 74.7 °F 100% 29.62 in 10.0 mi Calm Calm - N/A   Scattered Clouds
1:30 AM 74.8 °F - 74.8 °F 100% 29.61 in 10.0 mi Calm Calm - N/A   Clear
1:50 AM 74.7 °F - 74.5 °F 99% 29.60 in 10.0 mi Calm Calm - N/A   Clear
2:30 AM 74.1 °F - 74.1 °F 100% 29.59 in 10.0 mi Calm Calm - N/A   Clear
2:50 AM 74.1 °F - 74.1 °F 100% 29.59 in 10.0 mi Calm Calm - N/A   Clear
3:10 AM 74.1 °F - 74.1 °F 100% 29.58 in 10.0 mi Calm Calm - N/A   Clear
3:30 AM 73.8 °F - 73.8 °F 100% 29.59 in 10.0 mi Calm Calm - N/A   Scattered Clouds
3:50 AM 73.6 °F - 73.6 °F 100% 29.58 in 10.0 mi Calm Calm - N/A   Clear
4:10 AM 73.4 °F - 73.4 °F 100% 29.58 in 10.0 mi Calm Calm - N/A   Clear
4:30 AM 73.0 °F - 73.0 °F 100% 29.58 in 10.0 mi Calm Calm - N/A   Clear
4:50 AM 72.5 °F - 72.5 °F 100% 29.58 in 10.0 mi Calm Calm - N/A   Clear
5:10 AM 72.5 °F - 72.5 °F 100% 29.59 in 10.0 mi Calm Calm - N/A   Scattered Clouds
5:30 AM 71.8 °F - 71.8 °F 100% 29.59 in 10.0 mi Calm Calm - N/A   Scattered Clouds
5:50 AM 71.6 °F - 71.6 °F 100% 29.59 in 7.0 mi Calm Calm - N/A   Clear
6:10 AM 71.4 °F - 71.4 °F 100% 29.60 in 7.0 mi Calm Calm - N/A   Clear
6:30 AM 72.5 °F - 72.5 °F 100% 29.60 in 10.0 mi Calm Calm - N/A   Clear
6:50 AM 73.6 °F - 73.2 °F 99% 29.60 in 10.0 mi Calm Calm - N/A   Scattered Clouds
7:10 AM 74.3 °F - 72.3 °F 94% 29.60 in 10.0 mi Calm Calm - N/A   Scattered Clouds
7:30 AM 74.7 °F - 72.7 °F 94% 29.60 in 10.0 mi Calm Calm - N/A   Mostly Cloudy
7:50 AM 75.2 °F - 72.0 °F 90% 29.59 in 10.0 mi Calm Calm - N/A   Mostly Cloudy
8:10 AM 76.5 °F - 72.1 °F 86% 29.59 in 10.0 mi Calm Calm - N/A   Scattered Clouds
8:30 AM 77.5 °F - 72.1 °F 83% 29.60 in 10.0 mi Calm Calm - N/A   Clear
8:50 AM 78.8 °F - 72.3 °F 80% 29.60 in 10.0 mi Calm Calm - N/A   Clear
9:10 AM 79.9 °F - 72.3 °F 78% 29.59 in 10.0 mi SW 3.5 mph - N/A   Clear
9:30 AM 81.1 °F 85.6 °F 72.1 °F 74% 29.58 in 10.0 mi SW 4.6 mph - N/A   Clear
9:50 AM 82.0 °F 87.0 °F 72.1 °F 72% 29.58 in 10.0 mi WSW 4.6 mph - N/A   Clear
10:10 AM 83.8 °F 88.9 °F 71.4 °F 66% 29.57 in 10.0 mi West 5.8 mph - N/A   Clear
10:30 AM 84.6 °F 89.4 °F 70.7 °F 63% 29.57 in 10.0 mi West 5.8 mph - N/A   Scattered Clouds
10:50 AM 85.5 °F 90.4 °F 70.7 °F 61% 29.58 in 10.0 mi West 5.8 mph - N/A   Scattered Clouds
11:10 AM 85.1 °F 90.1 °F 70.9 °F 62% 29.58 in 10.0 mi West 6.9 mph - N/A   Mostly Cloudy
11:30 AM 85.1 °F 90.4 °F 71.1 °F 63% 29.58 in 10.0 mi WSW 5.8 mph - N/A   Mostly Cloudy
11:50 AM 85.1 °F 89.8 °F 70.2 °F 61% 29.58 in 10.0 mi WSW 5.8 mph - N/A   Scattered Clouds
12:10 PM 85.5 °F 90.1 °F 70.2 °F 60% 29.57 in 10.0 mi West 5.8 mph - N/A   Clear
12:30 PM 86.0 °F 90.7 °F 70.3 °F 59% 29.57 in 10.0 mi West 5.8 mph - N/A   Clear
12:50 PM 87.1 °F 92.4 °F 70.5 °F 58% 29.57 in 10.0 mi SSW 5.8 mph - N/A   Scattered Clouds
1:10 PM 88.0 °F 94.2 °F 71.6 °F 58% 29.56 in 10.0 mi South 8.1 mph - N/A   Scattered Clouds
1:30 PM 86.9 °F 92.9 °F 71.4 °F 60% 29.55 in 10.0 mi South 4.6 mph - N/A   Mostly Cloudy
1:50 PM 88.2 °F 94.1 °F 71.4 °F 57% 29.55 in 10.0 mi SSW 3.5 mph - N/A   Mostly Cloudy
2:10 PM 88.2 °F 94.1 °F 71.1 °F 57% 29.54 in 10.0 mi South 5.8 mph - N/A   Mostly Cloudy
2:30 PM 89.2 °F 95.9 °F 71.6 °F 56% 29.52 in 10.0 mi South 3.5 mph - N/A   Scattered Clouds
2:50 PM 89.6 °F 96.6 °F 71.8 °F 56% 29.50 in 10.0 mi South 8.1 mph - N/A   Scattered Clouds
3:10 PM 86.9 °F 91.7 °F 70.2 °F 57% 29.50 in 10.0 mi South 8.1 mph - N/A   Scattered Clouds
3:30 PM 85.3 °F 90.4 °F 71.1 °F 62% 29.51 in 10.0 mi SW 6.9 mph - N/A   Mostly Cloudy
3:50 PM 76.3 °F - 72.1 °F 87% 29.52 in 1.2 mi SW 3.5 mph - N/A   Overcast
4:10 PM 74.8 °F - 71.4 °F 89% 29.56 in 2.5 mi SSW 8.1 mph - N/A   Overcast
4:30 PM 72.7 °F - 70.0 °F 91% 29.52 in 10.0 mi South 5.8 mph - N/A   Scattered Clouds
4:50 PM 73.2 °F - 70.2 °F 90% 29.55 in 10.0 mi WSW 5.8 mph - N/A   Mostly Cloudy
5:05 PM 71.8 °F - 70.9 °F 97% 29.54 in 1.0 mi SE 8.1 mph - N/A   Overcast
5:30 PM 72.5 °F - 71.1 °F 95% 29.50 in 10.0 mi Calm Calm - N/A   Mostly Cloudy
5:50 PM 70.7 °F - 70.0 °F 98% 29.52 in 0.5 mi South 9.2 mph 21.9 mph N/A   Overcast
6:10 PM 71.2 °F - 71.1 °F 99% 29.52 in 3.0 mi Calm Calm - N/A   Overcast
6:30 PM 72.9 °F - 72.5 °F 99% 29.49 in 7.0 mi SSE 4.6 mph - N/A   Overcast
6:50 PM 72.5 °F - 72.5 °F 100% 29.51 in 5.0 mi South 5.8 mph - N/A   Overcast
7:10 PM 72.7 °F - 72.7 °F 100% 29.54 in 7.0 mi Calm Calm - N/A   Mostly Cloudy
7:30 PM 73.4 °F - 73.4 °F 100% 29.53 in 7.0 mi South 3.5 mph - N/A   Scattered Clouds
7:50 PM 73.2 °F - 73.2 °F 100% 29.53 in 10.0 mi South 3.5 mph - N/A   Mostly Cloudy
8:10 PM 73.4 °F - 73.4 °F 100% 29.52 in 7.0 mi Calm Calm - N/A   Overcast
8:30 PM 72.9 °F - 72.9 °F 100% 29.52 in 5.0 mi North 3.5 mph - N/A   Overcast
8:50 PM 72.9 °F - 72.9 °F 100% 29.54 in 5.0 mi Calm Calm - N/A   Overcast
9:10 PM 73.4 °F - 73.4 °F 100% 29.56 in 7.0 mi SSE 4.6 mph - N/A   Mostly Cloudy
9:30 PM 73.0 °F - 73.0 °F 100% 29.56 in 5.0 mi Calm Calm - N/A   Scattered Clouds
9:50 PM 73.4 °F - 73.4 °F 100% 29.57 in 7.0 mi Calm Calm - N/A   Scattered Clouds
10:05 PM 73.0 °F - 73.0 °F 100% 29.56 in 4.0 mi Calm Calm - N/A   Mostly Cloudy
10:30 PM 73.4 °F - 73.4 °F 100% 29.55 in 4.0 mi Calm Calm - N/A   Overcast
10:50 PM 73.4 °F - 73.4 °F 100% 29.56 in 3.0 mi SSE 3.5 mph - N/A   Scattered Clouds
11:10 PM 73.2 °F - 73.2 °F 100% 29.57 in 5.0 mi Calm Calm - N/A   Scattered Clouds
11:30 PM 73.0 °F - 73.0 °F 100% 29.57 in 5.0 mi South 3.5 mph - N/A   Mostly Cloudy
11:50 PM 72.9 °F - 72.9 °F 100% 29.57 in 7.0 mi SSE 3.5 mph - N/A   Mostly Cloudy